{"data":{"norad_id":66929,"epoch":"2026-05-24T21:42:39.680352Z","epoch_age_seconds":90245,"freshness":"FRESH","line1":"1 66929U 25286E   26144.90462593  .00007653  00000+0  23747-3 0  9996","line2":"2 66929  53.1593   3.8732 0000882  89.2684 270.8420 15.34388777 27092","mean_motion":15.34388777,"eccentricity":8.82e-5,"inclination_deg":53.1593,"raan_deg":3.8732,"arg_perigee_deg":89.2684,"mean_anomaly_deg":270.842,"bstar":0.00023747,"rev_number":2709,"period_min":93.848444513225,"perigee_km":462.13323248026,"apogee_km":463.33996258287,"semimajor_km":6840.8735975316,"source":"CELESTRAK","updated_at":"2026-05-25T13:38:21.385478Z"}}